[[{"header":{"parameterUnit":"m.s-1","parameterCategory":1,"la1":30.2991,"la2":30.254,"lo1":-89.0895,"lo2":-89.0444,"dy":0.0017,"dx":0.0017,"nx":28,"ny":28,"refTime":"2024-10-05T21:00:00:Z","depth":0,"parameterNumber":2,"parameterNumberName":"U-component_of_WINDS"},"data":[0,0,0,0,0,0,0,0,0,0,0,0,0,0,0,0,0,0,0,0,0,0,0,0,0,0,0,0,0,0,0,0,0,0,0,0,0,0,0,0,0,0,0,0,0,0,0,0,0,0,0,0,0,0,0,0,0,0,-2.6728,-2.6729,0,-2.6798,-2.6799,-2.68,-2.6698,-2.6694,-2.6691,-2.6687,-2.6763,-2.6768,-2.6773,0,0,0,0,0,0,0,0,0,0,0,0,0,-2.651,-2.6514,-2.6728,-2.6729,-2.673,-2.6798,-2.6799,-2.68,-2.6699,-2.6694,-2.669,-2.6686,-2.6761,-2.6767,-2.6774,0,0,0,0,0,0,0,0,0,0,0,0,0,-2.6595,-2.6516,-2.6728,-2.6687,-2.6685,-2.6798,-2.6799,-2.68,-2.67,-2.6694,-2.6689,-2.6684,-2.6759,-2.6767,-2.6775,-2.6932,0,0,-2.6799,-2.6803,0,0,0,0,0,0,0,0,-2.659,-2.6603,-2.6693,-2.669,-2.6687,-2.6734,-2.6749,-2.6844,-2.6701,-2.6694,-2.6687,-2.6681,-2.6758,-2.6765,-2.679,-2.6935,-2.6939,-2.68,-2.6805,-2.6808,-2.681,0,0,0,0,0,0,0,-2.6584,-2.6599,-2.6756,-2.6694,-2.6691,-2.6667,-2.6673,-2.6767,-2.6755,-2.6694,-2.6687,-2.6696,-2.6755,-2.6783,-2.6791,-2.694,-2.68,-2.6807,-2.6812,-2.6815,-2.7218,-2.7223,0,0,0,0,0,0,-2.6583,-2.6595,-2.6754,-2.6758,-2.6624,-2.6675,-2.6682,-2.6724,-2.6754,-2.6753,-2.6701,-2.6691,-2.6772,-2.6782,-2.6794,-2.6981,-2.6808,-2.6816,-2.682,-2.7212,-2.7219,-2.7226,0,0,0,0,0,0,-2.6579,-2.6598,-2.6751,-2.6675,-2.6692,-2.6684,-2.6733,-2.6729,-2.6756,-2.6759,-2.6757,-2.6731,-2.6768,-2.6782,-2.6898,-2.6982,-2.6819,-2.6826,-2.7205,-2.7214,-2.7222,-2.7356,0,0,0,0,0,0,-2.6573,-2.6597,-2.6656,-2.6677,-2.6697,-2.6854,-2.6738,-2.6734,-2.677,-2.6758,-2.6787,-2.6787,-2.6765,-2.6887,-2.6906,-2.699,-2.6833,-2.7198,-2.7209,-2.722,-2.7344,-2.7369,-2.7389,0,0,0,0,0,-2.6565,-2.6692,-2.666,-2.6679,-2.677,-2.6859,-2.687,-2.6842,-2.6777,-2.6837,-2.6839,-2.6786,-2.6969,-2.6899,-2.692,-2.7008,-2.7192,-2.7206,-2.7219,-2.7334,-2.7364,-2.7389,0,0,0,0,0,0,-2.6683,-2.6694,-2.6658,-2.6795,-2.6827,-2.6841,-2.6916,-2.6874,-2.6926,-2.6913,-2.6876,-2.6883,-2.7008,-2.7019,-2.6941,-2.7162,-2.707,-2.7088,-2.7151,-2.7179,-2.7201,-2.7197,-2.6839,0,0,0,0,0,-2.6724,-2.6794,-2.68,-2.692,-2.6938,-2.6925,-2.6962,-2.6937,-2.6969,-2.6982,-2.6992,-2.7026,-2.7091,-2.7135,-2.7195,-2.7344,-2.735,-2.7415,-2.7438,-2.7456,-2.7473,-2.7554,-2.7583,-2.7269,-2.7269,-2.7269,0,0,-2.6812,-2.6826,-2.6873,-2.6944,-2.6966,-2.7041,-2.6937,-2.702,-2.7075,-2.6995,-2.7105,-2.7114,-2.7149,-2.7283,-2.7342,-2.7296,-2.7561,-2.7473,-2.7488,-2.7495,-2.7571,-2.7601,-2.7627,-2.7278,-2.7276,-2.7275,0,0,-2.7009,-2.7026,-2.7129,-2.7152,-2.7185,-2.7176,-2.72,-2.7221,-2.7224,-2.7333,-2.7275,-2.734,-2.7453,-2.7481,-2.751,-2.7717,-2.7671,-2.7737,-2.7856,-2.7935,-2.796,-2.7982,-2.8057,-2.8085,-2.7753,-2.7754,-2.7754,0,-2.7114,-2.7223,-2.7187,-2.7274,-2.7308,-2.7237,-2.7342,-2.7366,-2.7418,-2.7444,-2.7391,-2.7531,-2.7549,-2.7689,-2.774,-2.7765,-2.7793,-2.7735,-2.7959,-2.798,-2.8,-2.8072,-2.8101,-2.7762,-2.7761,-2.776,-2.7759,0,-2.7351,-2.7427,-2.7506,-2.7557,-2.7599,-2.7695,-2.7674,-2.7721,-2.7692,-2.7688,-2.7801,-2.7821,-2.7884,-2.7914,-2.7887,-2.8051,-2.8021,-2.7964,-2.7872,-2.8039,-2.8106,-2.8133,-2.7773,-2.777,-2.7768,-2.7766,0,0,-2.7627,-2.7655,-2.7685,-2.7708,-2.7739,-2.7798,-2.789,-2.795,-2.7993,-2.803,-2.8108,-2.8204,-2.8151,-2.8184,-2.8159,-2.8229,-2.8394,-2.8163,-2.8164,-2.8207,-2.8577,-2.8621,-2.8654,-2.8362,-2.8367,-2.8371,-2.8574,0,-2.7825,-2.7984,-2.7954,-2.8109,-2.818,-2.8113,-2.8193,-2.8222,-2.822,-2.8281,-2.8279,-2.8349,-2.8273,-2.8293,-2.8358,-2.836,-2.8468,-2.8344,-2.8436,-2.8439,-2.8432,-2.8688,-2.8736,-2.8927,-2.86,-2.8604,-2.8608,0,-2.8078,-2.8125,-2.8287,-2.8307,-2.8336,-2.8409,-2.8462,-2.852,-2.8551,-2.8544,-2.8581,-2.8543,-2.8636,-2.8539,-2.8668,-2.8584,-2.8619,-2.8626,-2.8633,-2.8642,-2.8536,-2.8707,-2.8987,-2.9017,-2.8648,-2.8645,-2.8642,0,-2.8266,-2.8369,-2.8479,-2.85,-2.8526,-2.8579,-2.8592,-2.8617,-2.8656,-2.8702,-2.8727,-2.8784,-2.8816,-2.8862,-2.884,-2.8772,-2.8973,-2.8875,-2.8973,-2.8974,-2.902,-2.9018,-2.9313,-2.9039,-2.9039,-2.9038,-2.9038,0,-2.8492,-2.8595,-2.8564,-2.8633,-2.8745,-2.871,-2.8823,-2.8828,-2.8851,-2.892,-2.8865,-2.8931,-2.8898,-2.8962,-2.8945,-2.9055,-2.9069,-2.9068,-2.9063,-2.9075,-2.9076,-2.91,-2.9087,-2.9046,-2.9044,-2.9043,-2.9041,0,-2.8723,-2.8706,-2.8822,-2.8836,-2.8842,-2.8925,-2.8937,-2.9002,-2.8994,-2.9083,-2.9101,-2.9092,-2.9164,-2.9146,-2.9225,-2.9214,-2.9353,-2.933,-2.9343,-2.9338,-2.9438,-2.943,-2.976,-2.9803,-2.95,-2.9503,-2.9505,0,-2.8869,-2.8947,-2.8968,-2.901,-2.9027,-2.9095,-2.9134,-2.9101,-2.9144,-2.9184,-2.9245,-2.9311,-2.9364,-2.9482,-2.9483,-2.9544,-2.9523,-2.9635,-2.9532,-2.9542,-2.9528,-2.9524,-2.9533,-2.9656,-2.966,-2.9662,-2.9665,0,-2.9133,-2.912,-2.9177,-2.9232,-2.9279,-2.9321,-2.9358,-2.9395,-2.9365,-2.9416,-2.9489,-2.9529,-2.9609,-2.9677,-2.9733,-2.9747,-2.9703,-2.9696,-2.9723,-2.9737,-2.9742,-2.9743,-2.9401,-2.969,-2.9687,-2.9685,-2.9684,-2.9683,-2.9327,-2.9393,-2.9419,-2.9484,-2.9508,-2.9543,-2.9605,-2.9605,-2.9665,-2.9727,-2.9704,-2.9788,-2.9816,-2.9886,-2.9907,-2.9973,-2.9931,-2.9968,-2.9978,-2.9989,-3.0002,-2.9729,-2.9982,-2.9982,-2.9981,-2.998,-2.998,0,-2.9589,-2.9602,-2.9663,-2.9715,-2.9767,-2.9718,-2.9755,-2.9803,-2.9877,-2.9907,-2.9959,-3.0043,-3.0108,-3.0113,-3.0175,-3.0227,-3.0208,-3.0244,-3.0242,-3.0246,-3.0035,-3.0007,-3.0259,-3.0259,-3.0258,-3.0258,-3.0258,-3.0258,-2.9732,-2.9841,-2.9832,-2.9952,-2.9964,-3.0045,-3.0071,-3.0104,-3.0128,-3.0224,-3.0277,-3.0279,-3.03,-3.0362,-3.0421,-3.042,-3.0447,-3.0492,-3.0485,-3.0288,-3.0261,-3.0234,-3.0208,-3.0497,-3.0498,-3.069,-3.0692,-3.0693]},{"header":{"parameterUnit":"m.s-1","parameterCategory":1,"la1":30.2991,"la2":30.254,"lo1":-89.0895,"lo2":-89.0444,"dy":0.0017,"dx":0.0017,"nx":28,"ny":28,"refTime":"2024-10-05T21:00:00:Z","depth":0,"parameterNumber":3,"parameterNumberName":"V-component_of_WINDS"},"data":[0,0,0,0,0,0,0,0,0,0,0,0,0,0,0,0,0,0,0,0,0,0,0,0,0,0,0,0,0,0,0,0,0,0,0,0,0,0,0,0,0,0,0,0,0,0,0,0,0,0,0,0,0,0,0,0,0,0,-4.4164,-4.4165,0,-4.4184,-4.4184,-4.4184,-4.4097,-4.4095,-4.4092,-4.409,-4.4109,-4.4112,-4.4115,0,0,0,0,0,0,0,0,0,0,0,0,0,-4.405,-4.4052,-4.4164,-4.4165,-4.4165,-4.4184,-4.4184,-4.4184,-4.4098,-4.4095,-4.4092,-4.4089,-4.4108,-4.4111,-4.4115,0,0,0,0,0,0,0,0,0,0,0,0,0,-4.4087,-4.4053,-4.4164,-4.4124,-4.4121,-4.4184,-4.4184,-4.4184,-4.4099,-4.4095,-4.4091,-4.4087,-4.4107,-4.4111,-4.4115,-4.4218,0,0,-4.4129,-4.413,0,0,0,0,0,0,0,0,-4.4085,-4.4092,-4.413,-4.4127,-4.4123,-4.4134,-4.4151,-4.4196,-4.41,-4.4107,-4.409,-4.4086,-4.412,-4.4123,-4.4135,-4.4219,-4.422,-4.4129,-4.4132,-4.4133,-4.4135,0,0,0,0,0,0,0,-4.4083,-4.409,-4.4172,-4.413,-4.4126,-4.4104,-4.4105,-4.4159,-4.4135,-4.4106,-4.41,-4.4103,-4.4118,-4.4132,-4.4135,-4.422,-4.4129,-4.4133,-4.4135,-4.4137,-4.4387,-4.4391,0,0,0,0,0,0,-4.4086,-4.4089,-4.4171,-4.4173,-4.4095,-4.4109,-4.4111,-4.4135,-4.4134,-4.413,-4.4106,-4.4099,-4.4126,-4.413,-4.4136,-4.4255,-4.4133,-4.4137,-4.414,-4.4383,-4.4388,-4.4392,0,0,0,0,0,0,-4.4084,-4.4094,-4.4171,-4.4129,-4.4137,-4.4115,-4.4143,-4.4137,-4.415,-4.4134,-4.4129,-4.4125,-4.4123,-4.4129,-4.4198,-4.4254,-4.4139,-4.4143,-4.4378,-4.4385,-4.439,-4.4494,0,0,0,0,0,0,-4.4081,-4.4094,-4.4133,-4.4131,-4.414,-4.4234,-4.4146,-4.414,-4.4158,-4.4149,-4.415,-4.4147,-4.4121,-4.4192,-4.4202,-4.4258,-4.4147,-4.4373,-4.4381,-4.4388,-4.4486,-4.4503,-4.4518,0,0,0,0,0,-4.4077,-4.4162,-4.4136,-4.4146,-4.4189,-4.4237,-4.4242,-4.4211,-4.4163,-4.4202,-4.4191,-4.4147,-4.4246,-4.42,-4.421,-4.4268,-4.4369,-4.4379,-4.4388,-4.4479,-4.45,-4.4518,0,0,0,0,0,0,-4.4172,-4.4161,-4.4132,-4.4218,-4.4229,-4.4222,-4.427,-4.4234,-4.4259,-4.4249,-4.4208,-4.4209,-4.4284,-4.4283,-4.4231,-4.4367,-4.43,-4.4311,-4.4365,-4.4385,-4.4401,-4.44,-4.415,0,0,0,0,0,-4.4203,-4.4244,-4.4232,-4.4309,-4.4316,-4.4293,-4.4313,-4.4287,-4.4297,-4.4301,-4.4295,-4.4306,-4.4339,-4.4362,-4.4392,-4.4485,-4.4484,-4.453,-4.4547,-4.456,-4.457,-4.4618,-4.4639,-4.4422,-4.4422,-4.4422,0,0,-4.4267,-4.4266,-4.4295,-4.4328,-4.4334,-4.4376,-4.4297,-4.4346,-4.4376,-4.4308,-4.4372,-4.4369,-4.4377,-4.4458,-4.4494,-4.446,-4.463,-4.4572,-4.4582,-4.4586,-4.463,-4.465,-4.4669,-4.4429,-4.4427,-4.4426,0,0,-4.4406,-4.441,-4.4474,-4.4481,-4.4491,-4.4474,-4.449,-4.4488,-4.4483,-4.4547,-4.4496,-4.4532,-4.4591,-4.4599,-4.461,-4.4751,-4.4711,-4.4762,-4.4847,-4.4894,-4.4911,-4.4926,-4.4975,-4.4993,-4.4773,-4.4773,-4.4773,0,-4.4485,-4.4547,-4.4512,-4.4564,-4.458,-4.452,-4.4584,-4.4592,-4.4611,-4.4623,-4.4584,-4.4656,-4.4658,-4.4739,-4.4774,-4.4786,-4.4801,-4.4762,-4.4911,-4.4926,-4.4939,-4.4986,-4.5005,-4.4779,-4.4778,-4.4778,-4.4777,0,-4.4643,-4.4687,-4.4738,-4.4757,-4.4779,-4.4837,-4.4809,-4.4835,-4.4808,-4.4795,-4.486,-4.486,-4.4889,-4.4906,-4.488,-4.4984,-4.4962,-4.4918,-4.485,-4.4967,-4.501,-4.5027,-4.4788,-4.4786,-4.4784,-4.4782,0,0,-4.4843,-4.4841,-4.486,-4.4868,-4.4873,-4.4906,-4.4961,-4.4988,-4.5011,-4.5025,-4.5069,-4.512,-4.5079,-4.5093,-4.5067,-4.5109,-4.5219,-4.5059,-4.5059,-4.5088,-4.5332,-4.5364,-4.5386,-4.5192,-4.5195,-4.5198,-4.5331,0,-4.4978,-4.5072,-4.5041,-4.5135,-4.5175,-4.5118,-4.5165,-4.5173,-4.5163,-4.5194,-4.5182,-4.5218,-4.5162,-4.517,-4.5208,-4.5197,-4.5267,-4.5187,-4.5232,-4.5234,-4.5231,-4.5408,-4.5443,-4.5568,-4.5347,-4.535,-4.5352,0,-4.5149,-4.517,-4.5268,-4.5266,-4.5281,-4.5324,-4.5346,-4.5377,-4.5385,-4.5374,-4.5389,-4.5354,-4.5406,-4.5338,-4.5409,-4.5355,-4.5372,-4.5369,-4.5373,-4.5375,-4.53,-4.5415,-4.5607,-4.5626,-4.5379,-4.5376,-4.5375,0,-4.5283,-4.5336,-4.5402,-4.541,-4.5409,-4.544,-4.5441,-4.5445,-4.5463,-4.5482,-4.5493,-4.5519,-4.5533,-4.5553,-4.5525,-4.5478,-4.56,-4.553,-4.5592,-4.5593,-4.562,-4.5618,-4.5817,-4.5632,-4.5632,-4.5631,-4.5631,0,-4.5437,-4.55,-4.5462,-4.5502,-4.557,-4.5533,-4.5601,-4.5595,-4.5599,-4.5636,-4.5589,-4.5625,-4.5587,-4.5619,-4.5598,-4.5659,-4.5666,-4.5658,-4.5652,-4.5662,-4.5663,-4.5672,-4.5662,-4.5636,-4.5635,-4.5634,-4.5633,0,-4.5599,-4.5576,-4.5644,-4.5637,-4.5636,-4.5687,-4.568,-4.5716,-4.5702,-4.575,-4.5759,-4.5737,-4.5773,-4.5747,-4.5782,-4.5768,-4.5849,-4.583,-4.5846,-4.5841,-4.5904,-4.5898,-4.6115,-4.6141,-4.594,-4.5942,-4.5944,0,-4.5699,-4.5745,-4.5743,-4.5764,-4.5768,-4.5804,-4.5822,-4.5788,-4.5809,-4.582,-4.5855,-4.5886,-4.591,-4.5969,-4.5955,-4.5982,-4.5963,-4.6037,-4.5967,-4.5976,-4.5963,-4.5961,-4.5965,-4.6052,-4.6054,-4.6056,-4.6057,0,-4.5877,-4.5863,-4.5892,-4.5916,-4.5939,-4.5957,-4.597,-4.599,-4.5956,-4.5981,-4.6017,-4.6035,-4.6071,-4.6102,-4.6123,-4.6123,-4.6085,-4.608,-4.6095,-4.6106,-4.6113,-4.6109,-4.5884,-4.6075,-4.6073,-4.6072,-4.6071,-4.607,-4.601,-4.6048,-4.6052,-4.6085,-4.6092,-4.6105,-4.6139,-4.6128,-4.6157,-4.6184,-4.6162,-4.6204,-4.6209,-4.6234,-4.6239,-4.6271,-4.624,-4.6263,-4.6269,-4.6275,-4.6283,-4.6109,-4.6275,-4.6274,-4.6274,-4.6273,-4.6273,0,-4.6186,-4.6185,-4.6216,-4.6236,-4.6261,-4.6223,-4.6235,-4.6259,-4.6297,-4.6305,-4.6328,-4.6369,-4.6399,-4.6388,-4.6414,-4.6442,-4.6425,-4.645,-4.6447,-4.6448,-4.631,-4.6293,-4.6463,-4.6463,-4.6463,-4.6463,-4.6463,-4.6463,-4.628,-4.6342,-4.6328,-4.6393,-4.6391,-4.6433,-4.6443,-4.6455,-4.6461,-4.6508,-4.6533,-4.6525,-4.6525,-4.6551,-4.6576,-4.6572,-4.6584,-4.6615,-4.6605,-4.6476,-4.6457,-4.6439,-4.6424,-4.6618,-4.6619,-4.674,-4.6741,-4.6742]}]]